Regional Weather Roundup
Issued by NWS Goodland, KS

Home | Current Version | Previous Version | Text Only | Print | Product List | Glossary Off
Versions: 1 2 3 4 5 6 7 8 9 10 11 12 13 14 15 16 17 18 19 20 21 22 23 24 25 26 27 28 29 30 31 32 33 34 35 36 37 38 39 40 41 42 43 44 45 46 47 48 49 50

000
ASUS43 KGLD 280608
RWRGLD

GOODLAND FORECAST AREA HOURLY WEATHER ROUNDUP
NATIONAL WEATHER SERVICE GOODLAND KS
1200 AM MDT FRI APR 28 2017

...OFFICIAL OBSERVATIONS...

CITY           SKY/WX    TMP DP  RH WIND       PRES   REMARKS
GOODLAND KS    CLOUDY    42  39  89 W12       29.61R
HILL CITY KS   LGT RAIN  46  45  96 E17G26    29.57F FOG
IMPERIAL NEB   RAIN      42  40  92 N6        29.63R
MCCOOK NEB     LGT RAIN  44  43  96 E21       29.60F
AKRON CO       CLOUDY    37  35  92 NW13      29.62S
BURLINGTON CO  NOT AVBL
LIMON CO       MOCLDY    35  34  96 NW5       29.65F
$$

...UNOFFICIAL OBSERVATIONS...

CITY           SKY/WX    TMP DP  RH WIND       PRES   REMARKS
LENORA KS        N/A     44  32  63 MISG        N/A
NORTON KS      LGT RAIN  45  39  81 E12       29.61F
SHARON SPRINGS   N/A     44  42  94 NW7         N/A
KIT CARSON CO    N/A     37  33  86 MISG        N/A
$$



USA.gov is the U.S. government's official web portal to all federal, state and local government web resources and services.